Torna al catalogo

THOR ABLESTAR DEB

AttivoLEO
NORAD 335·DEBRIS·🇺🇸 United States

Lanciato Jun 29, 1961 da Cape Canaveral Space Force Station

Loading…

Prossimi Passaggi (prossime 24 ore)

TLE

AggiornatoSource: Space-Track

Epoca: Sep 13, 2026, 07:59 UTC

1   335U 61015DM  26256.33285957  .00000581  00000-0  29234-3 0  9994
2   335  66.8371 262.9579 0030697 109.8370 250.6039 14.23087852339850

Traccia THOR ABLESTAR DEB in tempo reale con AllMySat

Download on the App Store